[[{"header":{"parameterUnit":"m.s-1","parameterCategory":1,"la1":30.2991,"la2":30.254,"lo1":-89.0895,"lo2":-89.0444,"dy":0.0017,"dx":0.0017,"nx":28,"ny":28,"refTime":"2023-05-23T21:00:00:Z","depth":0,"parameterNumber":2,"parameterNumberName":"U-component_of_WINDS"},"data":[0,0,0,0,0,0,0,0,0,0,0,0,0,0,0,0,0,0,0,0,0,0,0,0,0,0,0,0,0,0,0,0,0,0,0,0,0,0,0,0,0,0,0,0,0,0,0,0,0,0,0,0,0,0,0,0,0,0,-2.2831,-2.283,0,-2.2778,-2.2777,-2.2777,-2.275,-2.275,-2.275,-2.275,-2.2695,-2.2694,-2.2692,0,0,0,0,0,0,0,0,0,0,0,0,0,-2.2909,-2.2908,-2.2831,-2.283,-2.283,-2.2778,-2.2777,-2.2777,-2.275,-2.275,-2.275,-2.275,-2.2695,-2.2694,-2.2692,0,0,0,0,0,0,0,0,0,0,0,0,0,-2.2868,-2.2907,-2.2831,-2.281,-2.2808,-2.2778,-2.2777,-2.2776,-2.275,-2.275,-2.275,-2.275,-2.2696,-2.2694,-2.2692,-2.2679,0,0,-2.2685,-2.2684,0,0,0,0,0,0,0,0,-2.287,-2.2865,-2.2814,-2.2811,-2.2809,-2.277,-2.2785,-2.2744,-2.275,-2.2772,-2.275,-2.275,-2.272,-2.2716,-2.2706,-2.2677,-2.2674,-2.2685,-2.2684,-2.2683,-2.2682,0,0,0,0,0,0,0,-2.2873,-2.2867,-2.281,-2.2813,-2.281,-2.2803,-2.2797,-2.2777,-2.2747,-2.277,-2.2768,-2.2762,-2.2719,-2.2708,-2.2705,-2.2674,-2.2685,-2.2683,-2.2682,-2.2681,-2.2633,-2.2633,0,0,0,0,0,0,-2.2879,-2.2869,-2.2812,-2.2808,-2.284,-2.2802,-2.2795,-2.2783,-2.2747,-2.2741,-2.2762,-2.2761,-2.2712,-2.2707,-2.2703,-2.2687,-2.2683,-2.2681,-2.268,-2.2633,-2.2633,-2.2633,0,0,0,0,0,0,-2.2881,-2.2874,-2.2814,-2.2838,-2.283,-2.2801,-2.2787,-2.2782,-2.2771,-2.2741,-2.2735,-2.2757,-2.2712,-2.2706,-2.2686,-2.2684,-2.268,-2.2678,-2.2633,-2.2633,-2.2633,-2.2654,0,0,0,0,0,0,-2.2883,-2.2875,-2.287,-2.2838,-2.2829,-2.2797,-2.2787,-2.2781,-2.2768,-2.2766,-2.2735,-2.2729,-2.2711,-2.2689,-2.2684,-2.2681,-2.2676,-2.2633,-2.2633,-2.2633,-2.2653,-2.2655,-2.2656,0,0,0,0,0,-2.2886,-2.2877,-2.287,-2.2863,-2.2822,-2.2797,-2.2792,-2.2771,-2.2768,-2.2762,-2.2743,-2.273,-2.2686,-2.2687,-2.2681,-2.2678,-2.2633,-2.2633,-2.2633,-2.2653,-2.2654,-2.2656,0,0,0,0,0,0,-2.2908,-2.2873,-2.2864,-2.2844,-2.2824,-2.2793,-2.2785,-2.2774,-2.2754,-2.2753,-2.2728,-2.2721,-2.2704,-2.2689,-2.2692,-2.2665,-2.2658,-2.2657,-2.2675,-2.2677,-2.2678,-2.2682,-2.2674,0,0,0,0,0,-2.2911,-2.2894,-2.2864,-2.285,-2.284,-2.2815,-2.2803,-2.2789,-2.2768,-2.2759,-2.2738,-2.2717,-2.2699,-2.2687,-2.2668,-2.2651,-2.2645,-2.2646,-2.2648,-2.2649,-2.2648,-2.264,-2.264,-2.2633,-2.2633,-2.2633,0,0,-2.2916,-2.2895,-2.2885,-2.2854,-2.2836,-2.282,-2.2808,-2.279,-2.2778,-2.2756,-2.2736,-2.2721,-2.2696,-2.2678,-2.2669,-2.2665,-2.2649,-2.2649,-2.265,-2.2648,-2.264,-2.264,-2.2641,-2.2633,-2.2633,-2.2633,0,0,-2.2917,-2.2899,-2.2886,-2.2869,-2.2844,-2.2827,-2.2824,-2.2795,-2.2784,-2.2764,-2.2747,-2.2733,-2.2701,-2.2684,-2.2672,-2.2669,-2.2657,-2.2664,-2.267,-2.2663,-2.2663,-2.2664,-2.2663,-2.2664,-2.2663,-2.2663,-2.2663,0,-2.2926,-2.2901,-2.288,-2.2865,-2.2852,-2.2832,-2.2819,-2.2804,-2.2773,-2.2765,-2.2761,-2.2721,-2.2703,-2.2682,-2.2682,-2.2672,-2.2668,-2.2667,-2.2665,-2.2665,-2.2665,-2.2665,-2.2665,-2.2664,-2.2664,-2.2664,-2.2664,0,-2.2915,-2.2898,-2.289,-2.2862,-2.2848,-2.2834,-2.2811,-2.28,-2.2788,-2.2772,-2.2753,-2.2731,-2.2708,-2.2702,-2.2689,-2.2679,-2.2678,-2.267,-2.2662,-2.2667,-2.2666,-2.2666,-2.2665,-2.2665,-2.2665,-2.2665,0,0,-2.2926,-2.2889,-2.2886,-2.2874,-2.2845,-2.2832,-2.2817,-2.2795,-2.2787,-2.2767,-2.2755,-2.2729,-2.2722,-2.2708,-2.2694,-2.2687,-2.2688,-2.268,-2.2679,-2.2683,-2.2677,-2.2683,-2.2683,-2.268,-2.268,-2.268,-2.2679,0,-2.2924,-2.2897,-2.2878,-2.2859,-2.2843,-2.2825,-2.2813,-2.2794,-2.278,-2.2765,-2.2748,-2.2731,-2.2723,-2.2714,-2.2707,-2.2689,-2.2686,-2.2689,-2.2669,-2.2668,-2.2676,-2.2683,-2.2689,-2.2689,-2.2679,-2.2679,-2.2678,0,-2.2916,-2.2898,-2.2877,-2.2852,-2.2845,-2.2834,-2.2813,-2.2799,-2.2779,-2.2768,-2.2754,-2.274,-2.2725,-2.2719,-2.2699,-2.2701,-2.2692,-2.2682,-2.2682,-2.2679,-2.2674,-2.2681,-2.2689,-2.2689,-2.2678,-2.2678,-2.2678,0,-2.2928,-2.2898,-2.2882,-2.2872,-2.2842,-2.2835,-2.2823,-2.2802,-2.279,-2.2773,-2.2765,-2.2746,-2.2735,-2.2721,-2.2702,-2.27,-2.2684,-2.2677,-2.2676,-2.2676,-2.2673,-2.2673,-2.268,-2.2667,-2.2667,-2.2667,-2.2667,0,-2.2927,-2.2915,-2.2887,-2.2877,-2.2864,-2.2844,-2.2831,-2.2817,-2.2799,-2.2787,-2.277,-2.2759,-2.2735,-2.2721,-2.2707,-2.2692,-2.2687,-2.268,-2.2676,-2.2681,-2.2682,-2.2675,-2.2674,-2.2667,-2.2667,-2.2667,-2.2667,0,-2.2937,-2.2918,-2.29,-2.2874,-2.2867,-2.2858,-2.2836,-2.2826,-2.2811,-2.2796,-2.2791,-2.2768,-2.2751,-2.2732,-2.2708,-2.2698,-2.2686,-2.268,-2.2693,-2.2691,-2.2691,-2.2692,-2.2693,-2.2693,-2.268,-2.268,-2.268,0,-2.2937,-2.2928,-2.2902,-2.2892,-2.288,-2.2865,-2.2854,-2.2834,-2.2823,-2.28,-2.2794,-2.2776,-2.276,-2.2734,-2.2716,-2.2698,-2.2692,-2.2694,-2.2689,-2.2696,-2.2693,-2.2694,-2.2694,-2.2695,-2.2696,-2.2696,-2.2696,0,-2.2941,-2.2932,-2.2917,-2.2899,-2.2886,-2.287,-2.2854,-2.2848,-2.2825,-2.2814,-2.2797,-2.2785,-2.2762,-2.2745,-2.2725,-2.2712,-2.2701,-2.2698,-2.2697,-2.2702,-2.271,-2.2707,-2.2697,-2.2698,-2.2698,-2.2697,-2.2697,-2.2697,-2.2946,-2.2938,-2.2918,-2.2902,-2.2888,-2.2874,-2.2864,-2.2849,-2.2834,-2.2814,-2.2804,-2.2787,-2.2769,-2.2741,-2.2729,-2.2717,-2.2713,-2.2711,-2.271,-2.271,-2.2712,-2.2713,-2.2713,-2.2713,-2.2713,-2.2713,-2.2713,0,-2.2949,-2.2936,-2.2921,-2.29,-2.2888,-2.2879,-2.2861,-2.2851,-2.2837,-2.2821,-2.2807,-2.2788,-2.2772,-2.2753,-2.2736,-2.2729,-2.2724,-2.2726,-2.2726,-2.2724,-2.2717,-2.272,-2.2731,-2.2731,-2.2731,-2.2731,-2.2731,-2.2731,-2.2949,-2.2934,-2.2924,-2.2903,-2.289,-2.2874,-2.2865,-2.2853,-2.284,-2.282,-2.2807,-2.2795,-2.2778,-2.276,-2.2745,-2.274,-2.2735,-2.2738,-2.2732,-2.2725,-2.2724,-2.2722,-2.2725,-2.2737,-2.2737,-2.274,-2.274,-2.274]},{"header":{"parameterUnit":"m.s-1","parameterCategory":1,"la1":30.2991,"la2":30.254,"lo1":-89.0895,"lo2":-89.0444,"dy":0.0017,"dx":0.0017,"nx":28,"ny":28,"refTime":"2023-05-23T21:00:00:Z","depth":0,"parameterNumber":3,"parameterNumberName":"V-component_of_WINDS"},"data":[0,0,0,0,0,0,0,0,0,0,0,0,0,0,0,0,0,0,0,0,0,0,0,0,0,0,0,0,0,0,0,0,0,0,0,0,0,0,0,0,0,0,0,0,0,0,0,0,0,0,0,0,0,0,0,0,0,0,-0.3926,-0.3926,0,-0.3957,-0.3957,-0.3958,-0.4065,-0.4068,-0.407,-0.4073,-0.4102,-0.4101,-0.4099,0,0,0,0,0,0,0,0,0,0,0,0,0,-0.3958,-0.3956,-0.3926,-0.3926,-0.3927,-0.3957,-0.3957,-0.3958,-0.4065,-0.4068,-0.4071,-0.4074,-0.4103,-0.4101,-0.4099,0,0,0,0,0,0,0,0,0,0,0,0,0,-0.3962,-0.3956,-0.3926,-0.3984,-0.3989,-0.3957,-0.3958,-0.3958,-0.4064,-0.4068,-0.4072,-0.4075,-0.4103,-0.4101,-0.4099,-0.4012,0,0,-0.4092,-0.4091,0,0,0,0,0,0,0,0,-0.3961,-0.396,-0.3975,-0.398,-0.3986,-0.4011,-0.398,-0.3976,-0.4063,-0.4036,-0.4073,-0.4077,-0.4069,-0.407,-0.4068,-0.4014,-0.4015,-0.4092,-0.4091,-0.409,-0.4089,0,0,0,0,0,0,0,-0.3961,-0.396,-0.3938,-0.3975,-0.3982,-0.4008,-0.4012,-0.398,-0.4031,-0.4038,-0.4046,-0.4049,-0.4073,-0.4069,-0.4069,-0.4016,-0.4092,-0.409,-0.4089,-0.4088,-0.3895,-0.3891,0,0,0,0,0,0,-0.3953,-0.3959,-0.3937,-0.3939,-0.3982,-0.4004,-0.4009,-0.3999,-0.4032,-0.4041,-0.4046,-0.4054,-0.4071,-0.4071,-0.407,-0.3974,-0.409,-0.4088,-0.4086,-0.3899,-0.3894,-0.389,0,0,0,0,0,0,-0.3953,-0.395,-0.3936,-0.3951,-0.3951,-0.4,-0.3988,-0.3998,-0.3995,-0.4038,-0.4047,-0.4033,-0.4074,-0.4074,-0.4027,-0.3976,-0.4087,-0.4085,-0.3903,-0.3897,-0.3892,-0.3777,0,0,0,0,0,0,-0.3953,-0.3949,-0.3917,-0.395,-0.395,-0.3892,-0.3984,-0.3996,-0.3991,-0.4002,-0.4028,-0.4036,-0.4077,-0.403,-0.4025,-0.3975,-0.4083,-0.3908,-0.3901,-0.3894,-0.3786,-0.3769,-0.3754,0,0,0,0,0,-0.3954,-0.3882,-0.3915,-0.3912,-0.3911,-0.3889,-0.3889,-0.3938,-0.3987,-0.3955,-0.3982,-0.4035,-0.3982,-0.4024,-0.4019,-0.3968,-0.3911,-0.3903,-0.3894,-0.3793,-0.3772,-0.3754,0,0,0,0,0,0,-0.3841,-0.3888,-0.3924,-0.3861,-0.387,-0.3907,-0.3868,-0.3914,-0.3909,-0.3919,-0.398,-0.3985,-0.393,-0.3944,-0.399,-0.3887,-0.3956,-0.3946,-0.388,-0.386,-0.3845,-0.3843,-0.4081,0,0,0,0,0,-0.3809,-0.3788,-0.3829,-0.3769,-0.3772,-0.3819,-0.3811,-0.3848,-0.386,-0.3864,-0.3888,-0.3897,-0.3883,-0.3872,-0.3861,-0.3788,-0.3796,-0.3751,-0.3734,-0.3721,-0.3712,-0.3677,-0.3658,-0.3862,-0.3862,-0.3862,0,0,-0.3742,-0.3765,-0.3748,-0.3747,-0.3759,-0.3736,-0.3822,-0.3792,-0.3776,-0.386,-0.3818,-0.3836,-0.385,-0.379,-0.3765,-0.38,-0.3657,-0.371,-0.3699,-0.3698,-0.3666,-0.3647,-0.363,-0.3856,-0.3857,-0.3858,0,0,-0.361,-0.3624,-0.3577,-0.3587,-0.3604,-0.3636,-0.3624,-0.3654,-0.367,-0.3629,-0.3692,-0.3672,-0.3646,-0.3654,-0.3654,-0.3525,-0.3575,-0.352,-0.3436,-0.3401,-0.3385,-0.3371,-0.3327,-0.3311,-0.3511,-0.351,-0.351,0,-0.3525,-0.3493,-0.3547,-0.3515,-0.3513,-0.3589,-0.3542,-0.3549,-0.356,-0.3558,-0.3597,-0.3567,-0.3581,-0.3526,-0.3494,-0.3491,-0.3481,-0.3518,-0.3383,-0.3369,-0.3357,-0.3316,-0.3299,-0.3504,-0.3504,-0.3505,-0.3506,0,-0.3389,-0.3365,-0.3325,-0.3337,-0.333,-0.329,-0.3339,-0.3326,-0.3363,-0.3391,-0.3349,-0.3369,-0.3364,-0.3353,-0.3389,-0.3303,-0.3325,-0.3372,-0.3443,-0.333,-0.3293,-0.3278,-0.3494,-0.3497,-0.3499,-0.35,0,0,-0.3187,-0.3229,-0.3214,-0.3221,-0.3245,-0.3228,-0.3192,-0.3189,-0.3177,-0.3182,-0.3155,-0.3131,-0.3175,-0.3176,-0.3213,-0.3182,-0.3081,-0.3234,-0.3235,-0.3207,-0.2991,-0.2957,-0.2938,-0.3113,-0.311,-0.3108,-0.299,0,-0.3063,-0.3006,-0.3054,-0.2987,-0.2967,-0.3039,-0.3007,-0.3019,-0.3043,-0.303,-0.3056,-0.304,-0.3099,-0.31,-0.3072,-0.3099,-0.3039,-0.3108,-0.3089,-0.3088,-0.3086,-0.2918,-0.2882,-0.277,-0.2976,-0.2973,-0.2971,0,-0.2911,-0.2912,-0.2844,-0.2875,-0.2868,-0.2839,-0.2841,-0.2826,-0.2841,-0.2861,-0.2862,-0.2908,-0.2875,-0.2942,-0.2898,-0.2944,-0.2939,-0.2951,-0.2948,-0.295,-0.3025,-0.2918,-0.2735,-0.2719,-0.2949,-0.295,-0.2952,0,-0.2775,-0.2758,-0.2716,-0.2719,-0.2753,-0.2731,-0.2744,-0.2762,-0.2758,-0.2758,-0.2756,-0.2752,-0.2751,-0.2746,-0.279,-0.2835,-0.2741,-0.2812,-0.2759,-0.2757,-0.2738,-0.2739,-0.2554,-0.2729,-0.2729,-0.273,-0.273,0,-0.2633,-0.2589,-0.2655,-0.2629,-0.2583,-0.2637,-0.2589,-0.261,-0.2625,-0.2605,-0.2665,-0.2644,-0.2702,-0.2687,-0.2721,-0.2681,-0.2679,-0.2695,-0.2705,-0.2691,-0.269,-0.2691,-0.2701,-0.2725,-0.2726,-0.2727,-0.2728,0,-0.2474,-0.2516,-0.2475,-0.2511,-0.2519,-0.2483,-0.2513,-0.2491,-0.2519,-0.2493,-0.249,-0.2534,-0.252,-0.2563,-0.2555,-0.2578,-0.252,-0.2541,-0.2516,-0.2523,-0.2469,-0.2474,-0.228,-0.2259,-0.2445,-0.2443,-0.2441,0,-0.2382,-0.2351,-0.2383,-0.2375,-0.2385,-0.2369,-0.2366,-0.2418,-0.2411,-0.2426,-0.2402,-0.2393,-0.2389,-0.2363,-0.2395,-0.239,-0.2413,-0.2345,-0.2413,-0.2401,-0.2415,-0.2418,-0.2416,-0.2332,-0.233,-0.2328,-0.2326,0,-0.2216,-0.2239,-0.2232,-0.2231,-0.2226,-0.2228,-0.2234,-0.2223,-0.2279,-0.2268,-0.2256,-0.2253,-0.2246,-0.2237,-0.2238,-0.2251,-0.2298,-0.2304,-0.2293,-0.228,-0.2267,-0.2276,-0.2481,-0.2309,-0.2311,-0.2312,-0.2313,-0.2314,-0.209,-0.2066,-0.2086,-0.2077,-0.2087,-0.2091,-0.2073,-0.21,-0.209,-0.209,-0.212,-0.2102,-0.2118,-0.2125,-0.2133,-0.212,-0.2151,-0.2133,-0.2129,-0.2124,-0.2116,-0.2267,-0.212,-0.212,-0.2121,-0.2121,-0.2121,0,-0.193,-0.1947,-0.1937,-0.1945,-0.1937,-0.1982,-0.1991,-0.1982,-0.1965,-0.1976,-0.1972,-0.1957,-0.1949,-0.198,-0.1976,-0.1959,-0.198,-0.1956,-0.196,-0.1962,-0.2087,-0.2099,-0.1939,-0.1939,-0.1939,-0.1939,-0.1939,-0.1939,-0.1846,-0.1809,-0.1834,-0.1803,-0.1819,-0.1803,-0.1804,-0.1809,-0.1819,-0.1801,-0.1795,-0.1815,-0.1834,-0.1833,-0.1827,-0.1836,-0.1833,-0.1802,-0.1819,-0.1935,-0.1953,-0.197,-0.1982,-0.18,-0.18,-0.1696,-0.1695,-0.1694]}]]